FW3806 Weather Reports


Display with metric or nautical units.
time (UTC)temp
F
wind
direction
speed
MPH
gust
MPH
rain 1hr
in
rain 24hr
in
rain mn
in
humidity
%
barometer
mb
20260509000009 96 324 6.0 13.0 0.00 0.00 0.00 6 1004.9
20260508234508 96 322 6.0 12.0 0.00 0.00 0.00 6 1004.8
20260508233007 96 323 4.0 14.0 0.00 0.00 0.00 7 1005.0
20260508231505 96 284 2.0 14.0 0.00 0.00 0.00 7 1005.1
20260508230004 96 314 0.0 17.0 0.00 0.00 0.00 6 1005.1
20260508224506 96 318 4.0 10.0 0.00 0.00 0.00 7 1005.4
20260508223002 96 307 7.0 15.0 0.00 0.00 0.00 6 1005.6
20260508221559 96 287 0.0 12.0 0.00 0.00 0.00 7 1005.8
20260508214606 97 207 0.0 9.0 0.00 0.00 0.00 7 1006.2
20260508213053 96 329 1.0 12.0 0.00 0.00 0.00 7 1006.4
20260508211551 97 288 3.0 10.0 0.00 0.00 0.00 8 1006.6
20260508210049 95 282 5.0 11.0 0.00 0.00 0.00 8 1006.7
20260508204547 96 308 0.0 16.0 0.00 0.00 0.00 9 1007.1
20260508203047 95 325 5.0 14.0 0.00 0.00 0.00 8 1007.2
20260508201542 94 112 3.0 14.0 0.00 0.00 0.00 8 1007.4
20260508200040 95 264 3.0 10.0 0.00 0.00 0.00 8 1007.6
20260508194537 94 292 0.0 9.0 0.00 0.00 0.00 9 1007.8
20260508193038 94 104 3.0 7.0 0.00 0.00 0.00 9 1008.0
20260508191534 92 77 3.0 8.0 0.00 0.00 0.00 9 1008.1
20260508190030 91 135 4.0 13.0 0.00 0.00 0.00 11 1008.4
20260508184531 90 100 7.0 14.0 0.00 0.00 0.00 11 1008.7
20260508183026 90 51 7.0 12.0 0.00 0.00 0.00 11 1008.9
20260508181523 90 82 7.0 10.0 0.00 0.00 0.00 11 1009.0
20260508180025 89 118 5.0 10.0 0.00 0.00 0.00 11 1009.1
20260508174520 89 108 7.0 14.0 0.00 0.00 0.00 11 1009.2
20260508173019 88 74 5.0 10.0 0.00 0.00 0.00 12 1009.5
20260508171519 88 91 6.0 8.0 0.00 0.00 0.00 12 1009.4
20260508170018 88 147 2.0 16.0 0.00 0.00 0.00 12 1009.6
20260508164515 87 116 4.0 7.0 0.00 0.00 0.00 12 1009.7
20260508163012 86 58 2.0 3.0 0.00 0.00 0.00 12 1009.8
20260508161509 85 354 1.0 5.0 0.00 0.00 0.00 12 1009.8
20260508160015 85 326 4.0 9.0 0.00 0.00 0.00 14 1009.5
20260508154505 84 311 3.0 12.0 0.00 0.00 0.00 14 1009.6
20260508153101 83 292 4.0 11.0 0.00 0.00 0.00 14 1009.6
20260508151557 81 309 5.0 13.0 0.00 0.00 0.00 15 1009.7
20260508150054 80 288 5.0 8.0 0.00 0.00 0.00 16 1009.8
20260508144550 78 285 3.0 8.0 0.00 0.00 0.00 17 1009.8
20260508143058 76 299 4.0 8.0 0.00 0.00 0.00 18 1009.8
20260508141552 74 284 5.0 9.0 0.00 0.00 0.00 18 1009.7
20260508140047 74 316 5.0 8.0 0.00 0.00 0.00 18 1009.6
20260508134543 73 285 3.0 10.0 0.00 0.00 0.00 18 1009.4
20260508133052 73 310 5.0 10.0 0.00 0.00 0.00 18 1009.2
20260508131537 73 288 5.0 10.0 0.00 0.00 0.00 17 1009.0
20260508130036 72 285 4.0 12.0 0.00 0.00 0.00 18 1008.8
20260508124535 71 284 3.0 7.0 0.00 0.00 0.00 18 1008.7
20260508123034 70 305 1.0 5.0 0.00 0.00 0.00 18 1008.7
20260508121553 69 286 0.0 2.0 0.00 0.00 0.00 19 1008.7
20260508120036 69 280 0.0 3.0 0.00 0.00 0.00 19 1008.7
20260508114531 69 304 1.0 8.0 0.00 0.00 0.00 18 1008.6
20260508113030 69 276 3.0 7.0 0.00 0.00 0.00 19 1008.5
20260508111527 69 298 3.0 8.0 0.00 0.00 0.00 18 1008.4
20260508110026 69 302 2.0 7.0 0.00 0.00 0.00 19 1008.3
20260508104526 72 330 4.0 7.0 0.00 0.00 0.00 17 1008.3
20260508103022 72 290 2.0 7.0 0.00 0.00 0.00 17 1008.1
20260508101522 71 316 1.0 5.0 0.00 0.00 0.00 17 1008.1
20260508100021 70 264 2.0 6.0 0.00 0.00 0.00 17 1008.2
20260508094522 69 315 2.0 9.0 0.00 0.00 0.00 17 1008.2
20260508093118 70 333 4.0 9.0 0.00 0.00 0.00 17 1008.0
20260508091514 71 328 3.0 8.0 0.00 0.00 0.00 16 1008.1
20260508090014 73 320 4.0 10.0 0.00 0.00 0.00 15 1008.0
20260508084509 74 303 3.0 7.0 0.00 0.00 0.00 15 1008.0
20260508083020 75 309 3.0 7.0 0.00 0.00 0.00 14 1008.2
20260508081506 75 297 1.0 5.0 0.00 0.00 0.00 15 1008.1
20260508080006 76 283 0.0 7.0 0.00 0.00 0.00 14 1008.2
20260508074504 73 292 2.0 5.0 0.00 0.00 0.00 16 1008.2
20260508073003 73 316 1.0 5.0 0.00 0.00 0.00 16 1008.3
20260508071600 74 297 1.0 4.0 0.00 0.00 0.00 16 1008.2
20260508070156 75 296 2.0 4.0 0.00 0.00 0.00 14 1008.3
20260508064608 75 286 1.0 4.0 0.00 0.00 0.00 15 1008.3
20260508063055 74 288 1.0 4.0 0.00 0.00 0.00 16 1008.2
20260508061553 74 301 2.0 5.0 0.00 0.00 0.00 16 1008.2
20260508060059 74 295 1.0 5.0 0.00 0.00 0.00 18 1008.1
20260508054555 74 295 0.0 0.0 0.00 0.00 0.00 19 1008.2
20260508053051 76 295 0.0 0.0 0.00 0.00 0.00 18 1008.2
20260508051551 78 328 0.0 3.0 0.00 0.00 0.00 17 1008.2
20260508050056 78 15 0.0 0.0 0.00 0.00 0.00 16 1008.3
20260508044550 79 68 0.0 0.0 0.00 0.00 0.00 15 1008.3
20260508043049 80 68 0.0 0.0 0.00 0.00 0.00 14 1008.2
20260508041551 81 68 0.0 1.0 0.00 0.00 0.00 13 1008.3
20260508040048 83 68 0.0 3.0 0.00 0.00 0.00 12 1008.0
20260508034554 84 91 2.0 7.0 0.00 0.00 0.00 12 1007.9
20260508033047 83 76 0.0 4.0 0.00 0.00 0.00 13 1007.8
20260508031546 84 188 0.0 0.0 0.00 0.00 0.00 14 1007.6
20260508024555 87 167 1.0 5.0 0.00 0.00 0.00 12 1007.3
20260508023045 88 199 1.0 7.0 0.00 0.00 0.00 12 1007.2
20260508021545 90 152 2.0 5.0 0.00 0.00 0.00 11 1007.1
20260508020047 91 127 3.0 6.0 0.00 0.00 0.00 11 1007.0
20260508014545 91 150 1.0 10.0 0.00 0.00 0.00 11 1007.0
20260508013045 91 111 3.0 8.0 0.00 0.00 0.00 10 1006.9
20260508011551 92 155 4.0 12.0 0.00 0.00 0.00 10 1007.0
20260508010050 92 198 5.0 10.0 0.00 0.00 0.00 9 1007.1
20260508004553 92 226 0.0 8.0 0.00 0.00 0.00 9 1007.2
20260508003042 92 187 4.0 13.0 0.00 0.00 0.00 9 1007.2
20260508001540 92 168 4.0 11.0 0.00 0.00 0.00 9 1007.2
20260508000035 92 160 3.0 9.0 0.00 0.00 0.00 9 1007.5